Retour au catalogue

XINGSHIDAI-15

ActifScienceSSO
NORAD 61231·PAYLOAD·🇨🇳 China
Ce nom de satellite n'a pas encore été confirmé par des sources officielles.

Lancé Sep 24, 2024 depuis Yellow Sea Launch Area

Loading…

Prochains Passages (prochaines 24 heures)

TLE

FraisSource: Space-Track

Époque: Sep 14, 2026, 22:32 UTC

1 61231U 24173E   26257.93905748  .00001021  00000-0  51766-4 0  9990
2 61231  97.4123 328.4216 0001630  90.5514 269.5907 15.19160723109385

Suivez XINGSHIDAI-15 en temps réel avec AllMySat

Download on the App Store